Starlink 3672

operational
NORAD ID: 51974 Int'l Des: 2022-025 Owner: SPXS Country: US Constellation: starlink
LEOCIRCULARSTARLINK_TYPE

About Starlink 3672

Description loading...

Live Position

Loading 3D Globe...

Upcoming Passes

Altitude History

Altitude vs Time

uPlot chart will show altitude changes over time

Two-Line Element Set

1 51974U 22025U 25304.17400917 .00000848 00000-0 75832-4 0 9999
2 51974 53.0558 252.3051 0001502 88.1226 271.9935 15.06404665201395
Epoch: Oct 31, 2025 • Age: 15 hours

Current Status

Altitude 547.3 km
Velocity 7.59 km/s
Sub-Earth Point 6.59°N, 95.2°E
Launch Date Mar 9, 2022
Age 3.6 years
Type internet

Technical Details

Classification Payload
Mass 297.00 kg
Dry Mass 275.00 kg
Total Mass 297.00 kg
Length 0.20 m
Diameter 2.80 m
Span 9.00 m
Shape Box + pan
Manufacturer SPXS
Bus Type Starlink
Phase Status In Orbit
Owner/State SPXS/US

Large Constellations

Loading constellations...